Home > Time Zones > World Clock > Weather > U.S.A. > Nome > Past weeks

Flag for U.S.A. Weather past 2 weeks in Nome, Alaska, U.S.A.

Now
32 °F

Overcast.


Feels Like: 25 °F
Forecast: 25 / 32 °F
Wind: 8 mph from North

Location: Nome Airport

Current Time: Oct 21, 2014 at 7:15:12 AM

Latest Report: Oct 21, 2014 at 6:53 AM


Visibility: 10 mi

Pressure: 29.44 "Hg

Humidity: 64%

Dew point: 21 °F

Location of NomeLocation

Historic Weather in Nome — Graph

°F

Nome temperature yesterday

Maximum temperature yesterday: 35 °F (at 3:53 PM)
Minimum temperature yesterday: 23 °F (at 9:53 AM)
Average temperature yesterday: 30 °F

Past Weeks' High & Low Weather Summary

 TemperatureHumidityPressure
High38 °F (Oct 6, 2:53 PM)92% (Oct 15, 4:53 AM)30.45 "Hg (Oct 15, 4:53 AM)
Low18 °F (Oct 18, 4:53 AM)47% (Oct 11, 1:53 PM)29.34 "Hg (Oct 20, 4:53 PM)
Average29 °F68%29.79 "Hg
* Reported Oct 6 5:53 AM — Oct 21 5:53 AM, Nome, Weather by CustomWeather, © 2014

Note: Actual official high and low records may vary slightly from our data, if they occured in-between our weather recording intervals... More about our weather records

Advertising

Nome weather history for previous 24 hours

 ConditionsComfort  
Time TempWeatherWind HumidityBarometerVisibility
5:53 AM
Oct 21
32 °FOvercast.8 mph64%29.43 "Hg10 mi
4:53 AM32 °FOvercast.8 mph66%29.41 "Hg10 mi
3:53 AM32 °FOvercast.12 mph64%29.40 "Hg10 mi
2:53 AM32 °FOvercast.12 mph61%29.40 "Hg10 mi
1:53 AM32 °FOvercast.3 mph61%29.39 "Hg10 mi
12:53 AM33 °FOvercast.6 mph58%29.39 "Hg10 mi
11:53 PM
Oct 20
32 °FPassing clouds.9 mph61%29.38 "Hg10 mi
10:53 PM32 °FPassing clouds.10 mph61%29.36 "Hg10 mi
9:53 PM31 °FPassing clouds.7 mph64%29.36 "Hg10 mi
8:53 PM33 °FMostly cloudy.3 mph58%29.36 "Hg10 mi
7:53 PM33 °FOvercast.7 mph61%29.35 "Hg10 mi
6:53 PM35 °FPartly sunny.6 mph54%29.35 "Hg10 mi
5:53 PM35 °FPartly sunny.9 mph54%29.34 "Hg10 mi
4:53 PM35 °FScattered clouds.14 mph54%29.34 "Hg10 mi
3:53 PM35 °FScattered clouds.15 mph54%29.34 "Hg10 mi
2:53 PM34 °FScattered clouds.16 mph54%29.35 "Hg10 mi
1:53 PM33 °FScattered clouds.6 mph58%29.36 "Hg10 mi
12:53 PM30 °FScattered clouds.9 mph66%29.36 "Hg10 mi
11:53 AM27 °FScattered clouds.3 mph72%29.37 "Hg10 mi
10:53 AM23 °FPassing clouds.8 mph81%29.36 "Hg10 mi
9:53 AM23 °FPassing clouds.6 mph81%29.36 "Hg10 mi
8:53 AM26 °FPassing clouds.3 mph74%29.37 "Hg10 mi
7:53 AM29 °FOvercast.3 mph72%29.37 "Hg10 mi
Weather by CustomWeather, © 2014

See weather overviewHow to use our weather pages